Location: Ottawa
(45.4167°N, 75.7000°W)
Time: 22:33:18
(UTC-05:00)

Envisat - Pass Details

Date: 07 October 2017
Orbit: 764 x 766 km, 98.2° (Epoch: 12 December)

Event Time Altitude Azimuth Distance (km) Brightness Sun altitude
Exits shadow 21:18:28 43° 230° (SW) 1,072 3.8 -29.6°
Maximum altitude 21:19:22 48° 261° (W) 1,002 3.8 -29.7°
Drops below altitude 10° 21:24:18 10° 336° (NNW) 2,315 6.0 -30.5°
Sets 21:26:42 0° 342° (NNW) 3,246 6.8 -30.9°
